Flag for Russia Weather past 2 weeks in Sochi, Russia

Now
50 °F

Passing clouds.


Feels Like: 47 °F
Forecast: 40 / 52 °F
Wind: 8 mph from East

Location: Adler

Current Time: Apr 2, 2015 at 6:42:51 AM

Latest Report: Apr 2, 2015 at 5:30 AM


Visibility: N/A

Pressure: 29.71 "Hg

Humidity: 82%

Dew point: 45 °F

Location of SochiLocation

Historic Weather in Sochi — Graph

°F

Sochi temperature yesterday

Maximum temperature yesterday: 54 °F (at 9:00 AM)
Minimum temperature yesterday: 48 °F (at 12:00 AM)
Average temperature yesterday: 51 °F

Past Weeks' High & Low Weather Summary

 TemperatureHumidityPressure
High72 °F (Mar 27, 3:30 PM)100% (Mar 21, 8:30 AM)30.36 "Hg (Mar 21, 8:30 AM)
Low37 °F (Mar 25, 6:00 AM)20% (Mar 27, 4:00 PM)29.62 "Hg (Mar 30, 5:30 AM)
Average51 °F74%29.99 "Hg
* Reported Mar 18 5:00 AM — Apr 2 5:30 AM, Sochi, Weather by CustomWeather, © 2015

Note: Actual official high and low records may vary slightly from our data, if they occured in-between our weather recording intervals... More about our weather records

Advertising

Sochi weather history for previous 24 hours

 ConditionsComfort  
Time TempWeatherWind HumidityBarometerVisibility
5:30 AM
Thu, Apr 2
50 °FPassing clouds.8 mph82%29.71 "HgN/A
5:00 AM48 °FPassing clouds.3 mph87%29.74 "HgN/A
4:30 AM48 °FPassing clouds.No wind87%29.74 "HgN/A
4:00 AM48 °FPassing clouds.6 mph87%29.74 "HgN/A
3:30 AM46 °FPassing clouds.6 mph87%29.77 "HgN/A
3:00 AM48 °FPassing clouds.3 mph87%29.77 "HgN/A
2:30 AM50 °FOvercast.3 mph88%29.77 "HgN/A
2:00 AM50 °FOvercast.6 mph88%29.80 "HgN/A
1:30 AM50 °FOvercast.3 mph88%29.80 "HgN/A
1:00 AM50 °FOvercast.1 mph94%29.83 "HgN/A
12:30 AM52 °FOvercast.1 mph88%29.83 "HgN/A
12:00 AM50 °FOvercast.1 mph94%29.83 "HgN/A
11:30 PM
Wed, Apr 1
50 °FPassing clouds.6 mph94%29.83 "HgN/A
11:00 PM50 °FPassing clouds.3 mph94%29.86 "HgN/A
10:30 PM50 °FPassing clouds.3 mph94%29.86 "HgN/A
10:00 PM52 °FPassing clouds.1 mph88%29.86 "HgN/A
9:30 PM52 °FPassing clouds.3 mph88%29.86 "HgN/A
9:00 PM52 °FPassing clouds.8 mph88%29.86 "HgN/A
8:30 PM52 °FPassing clouds.6 mph88%29.86 "HgN/A
8:00 PM52 °FPassing clouds.1 mph88%29.86 "Hg6 mi
7:30 PM52 °FPartly sunny.3 mph88%29.86 "HgN/A
7:00 PM52 °FPartly sunny.6 mph94%29.86 "HgN/A
6:30 PM52 °FPartly sunny.3 mph88%29.86 "HgN/A
6:00 PM52 °FPartly sunny.6 mph94%29.86 "HgN/A
5:30 PM52 °FBroken clouds.6 mph88%29.86 "HgN/A
5:00 PM54 °FBroken clouds.8 mph82%29.86 "HgN/A
4:30 PM54 °FMostly cloudy.6 mph88%29.86 "HgN/A
4:00 PM52 °FMostly cloudy.6 mph94%29.86 "HgN/A
3:30 PM52 °FMostly cloudy.3 mph88%29.86 "HgN/A
3:00 PM52 °FMore clouds than sun.3 mph88%29.86 "HgN/A
2:30 PM50 °FSprinkles. Mostly cloudy.1 mph94%29.86 "HgN/A
2:00 PM50 °FSprinkles. Mostly cloudy.3 mph94%29.86 "Hg2 mi
1:30 PM50 °FSprinkles. Mostly cloudy.3 mph94%29.86 "Hg2 mi
1:00 PM52 °FSprinkles. Mostly cloudy.6 mph88%29.86 "Hg3 mi
12:30 PM52 °FSprinkles. Mostly cloudy.6 mph94%29.86 "Hg3 mi
12:00 PM52 °FSprinkles. Mostly cloudy.3 mph94%29.86 "Hg6 mi
11:30 AM54 °FSprinkles. Mostly cloudy.6 mph88%29.83 "HgN/A
11:00 AM52 °FSprinkles. More clouds than sun.8 mph94%29.83 "HgN/A
10:30 AM54 °FSprinkles. Overcast.8 mph82%29.83 "HgN/A
10:00 AM54 °FSprinkles. Overcast.3 mph88%29.83 "HgN/A
9:30 AM54 °FSprinkles. Overcast.6 mph88%29.83 "HgN/A
9:00 AM54 °FSprinkles. Overcast.8 mph88%29.80 "HgN/A
8:30 AM52 °FSprinkles. Overcast.8 mph88%29.80 "HgN/A
8:00 AM52 °FSprinkles. Overcast.10 mph88%29.80 "HgN/A
7:30 AM52 °FSprinkles. Overcast.10 mph88%29.80 "HgN/A
7:00 AM52 °FSprinkles. Mostly cloudy.6 mph82%29.80 "HgN/A
6:30 AM50 °FOvercast.3 mph88%29.80 "HgN/A
Weather by CustomWeather, © 2015

See weather overviewHow to use our weather pages